Bangor, ME

4:47 AM EST on December 06, 2016 (GMT -0500)
Bangor International

Weather History for KBGR - January, 2013

Change the Weather History Date:

Thursday, January 3, 2013

  Actual Average Record
Temperature  
Mean Temperature 7 °F 18 °F  
Max Temperature 17 °F 28 °F 52 °F (1979)
Min Temperature -3 °F 8 °F -20 °F (2008)
Degree Days  
Heating Degree Days 58 47  
Month to date heating degree days 167 139  
Since 1 July heating degree days 2961 3060  
Cooling Degree Days 0 0  
Month to date cooling degree days 0 0  
Year to date cooling degree days 0 0  
Moisture  
Dew Point -5 °F    
Average Humidity 58    
Maximum Humidity 65    
Minimum Humidity 50    
Precipitation  
Precipitation 0.00 in 0.10 in 1.96 in (1960)
Month to date precipitation T 0.29  
Year to date precipitation T 0.29  
Snow  
Snow 0.00 in 0.50 in 8.60 in (1986)
Month to date snowfall T 1.7  
Since 1 July snowfall 21.6 18.5  
Snow Depth 13.00 in    
Sea Level Pressure  
Sea Level Pressure 30.00 in    
Wind  
Wind Speed 7 mph (WNW)    
Max Wind Speed 16 mph    
Max Gust Speed 18 mph    
Visibility 10 miles    
Events      
T = Trace of Precipitation, MM = Missing Value Source: NWS Daily Summary

Daily Weather History Graph

Daily Weather History Graph

Search for Another Location

Airport or City:

Trip Planner

Search our weather history database for the weather conditions in past years. The results will help you decide how hot, cold, wet, or windy it might be!

Date:

Astronomy

Jan. 03, 2013 Rise Set
Actual Time 7:12 AM EST 4:07 PM EST
Civil Twilight 6:39 AM EST 4:40 PM EST
Nautical Twilight 6:02 AM EST 5:17 PM EST
Astronomical Twilight 5:27 AM EST 5:52 PM EST
Moon 10:57 PM EST (1/3) 10:06 AM EST (1/3)
Length of Visible Light 10h 01m
Length of Day
8h 54m
Waning Gibbous, 65% of the Moon is Illuminated
Jan 3
Waning Gibbous
Jan 4
Last Quarter
Jan 11
New
Jan 18
First Quarter
Jan 26
Full

Hourly Weather History & Observations

Time (EST) Temp. Windchill Dew Point Humidity Pressure Visibility Wind Dir Wind Speed Gust Speed Precip Events Conditions
12:53 AM 1.0 °F -12.9 °F -9.9 °F 60% 29.99 in 10.0 mi NW 8.1 mph - N/A   Clear
1:53 AM 1.4 °F -12.5 °F -9.4 °F 61% 29.98 in 10.0 mi NW 8.1 mph - N/A   Clear
2:53 AM -2.9 °F -13.3 °F -11.0 °F 68% 30.03 in 10.0 mi WSW 4.6 mph - N/A   Clear
3:53 AM -0.9 °F -15.3 °F -9.9 °F 66% 30.04 in 10.0 mi West 8.1 mph - N/A   Clear
4:53 AM -2.0 °F -15.4 °F -11.0 °F 66% 30.04 in 10.0 mi WNW 6.9 mph - N/A   Clear
5:53 AM -0.9 °F -16.4 °F -11.0 °F 62% 30.04 in 10.0 mi NW 9.2 mph - N/A   Scattered Clouds
6:53 AM -0.9 °F -8.9 °F -9.9 °F 66% 30.04 in 10.0 mi West 3.5 mph - N/A   Mostly Cloudy
7:53 AM 1.0 °F -8.7 °F -9.0 °F 63% 30.05 in 10.0 mi WNW 4.6 mph - N/A   Mostly Cloudy
8:53 AM 1.0 °F - -9.0 °F 63% 30.07 in 10.0 mi Calm Calm - N/A   Mostly Cloudy
9:53 AM 5.0 °F -4.1 °F -7.1 °F 58% 30.06 in 10.0 mi WSW 4.6 mph - N/A   Scattered Clouds
10:53 AM 10.0 °F 1.8 °F -5.1 °F 51% 30.03 in 10.0 mi NNW 4.6 mph - N/A   Partly Cloudy
11:53 AM 14.0 °F 1.2 °F -2.9 °F 47% 30.00 in 10.0 mi NW 10.4 mph - N/A   Partly Cloudy
12:53 PM 15.1 °F 1.1 °F -0.9 °F 49% 29.97 in 10.0 mi NW 12.7 mph - N/A   Scattered Clouds
1:53 PM 16.0 °F 2.3 °F -0.0 °F 49% 29.97 in 10.0 mi NW 12.7 mph - N/A   Scattered Clouds
2:53 PM 16.0 °F 2.9 °F -0.0 °F 49% 29.96 in 10.0 mi NW 11.5 mph - N/A   Partly Cloudy
3:53 PM 16.0 °F 6.3 °F -0.9 °F 47% 29.96 in 10.0 mi NW 6.9 mph - N/A   Partly Cloudy
4:53 PM 10.9 °F 4.7 °F -0.9 °F 59% 29.96 in 10.0 mi WNW 3.5 mph - N/A   Partly Cloudy
5:53 PM 12.0 °F 2.7 °F -2.0 °F 53% 29.96 in 10.0 mi NW 5.8 mph - N/A   Partly Cloudy
6:53 PM 12.9 °F 1.6 °F -2.0 °F 51% 29.97 in 10.0 mi WNW 8.1 mph - N/A   Mostly Cloudy
7:53 PM 10.9 °F 4.7 °F -0.9 °F 59% 29.97 in 10.0 mi WNW 3.5 mph - N/A   Overcast
8:53 PM 10.9 °F 4.7 °F -0.9 °F 59% 29.97 in 10.0 mi NW 3.5 mph - N/A   Overcast
9:53 PM 10.9 °F 2.9 °F -2.0 °F 56% 29.97 in 10.0 mi West 4.6 mph - N/A   Overcast
10:53 PM 10.0 °F - -0.9 °F 61% 29.96 in 10.0 mi Calm Calm - N/A   Overcast
11:53 PM 7.0 °F - -0.9 °F 70% 29.93 in 10.0 mi Calm Calm - N/A   Mostly Cloudy